Hourly Weather Kyzylsu

Today, 31 October, Saturday

Time Temperature Precipitation Wind Pressure Humidity
00:00 +7°C° 0 mm 3 mps 728 mmHg 32%
01:00 +7°C° 0 mm 3 mps 728 mmHg 32%
02:00 +7°C° 0 mm 2 mps 728 mmHg 31%
03:00 +7°C° 0 mm 2 mps 728 mmHg 31%
04:00 +7°C° 0 mm 2 mps 727 mmHg 30%
05:00 +7°C° 0 mm 3 mps 727 mmHg 29%
06:00 +7°C° 0 mm 2 mps 728 mmHg 27%
07:00 +8°C° 0 mm 2 mps 728 mmHg 26%
08:00 +8°C° 0 mm 2 mps 728 mmHg 24%
09:00 +12°C° 0 mm 2 mps 728 mmHg 20%
10:00 +15°C° 0 mm 1 mps 728 mmHg 16%
11:00 +19°C° 0 mm 1 mps 728 mmHg 12%
12:00 +20°C° 0 mm 1 mps 728 mmHg 11%
13:00 +21°C° 0 mm 1 mps 728 mmHg 11%
14:00 +21°C° 0 mm 2 mps 727 mmHg 10%
15:00 +19°C° 0 mm 2 mps 727 mmHg 11%
16:00 +18°C° 0 mm 1 mps 727 mmHg 13%
17:00 +16°C° 0 mm 1 mps 727 mmHg 15%
18:00 +14°C° 0 mm 1 mps 726 mmHg 17%
19:00 +13°C° 0 mm 2 mps 726 mmHg 19%
20:00 +10°C° 0 mm 2 mps 726 mmHg 21%
21:00 +10°C° 0 mm 2 mps 726 mmHg 21%
22:00 +9°C° 0 mm 2 mps 726 mmHg 22%
23:00 +9°C° 0 mm 2 mps 726 mmHg 22%

Tomorrow, 1 November, Sunday

Time Temperature Precipitation Wind Pressure Humidity
00:00 +9°C° 0 mm 2 mps 726 mmHg 22%
01:00 +9°C° 0 mm 2 mps 725 mmHg 21%
02:00 +9°C° 0 mm 2 mps 725 mmHg 21%
03:00 +10°C° 0 mm 1 mps 725 mmHg 20%
04:00 +9°C° 0 mm 1 mps 725 mmHg 20%
05:00 +9°C° 0 mm 1 mps 725 mmHg 19%
06:00 +10°C° 0 mm 1 mps 726 mmHg 18%
07:00 +10°C° 0 mm 1 mps 726 mmHg 17%
08:00 +11°C° 0 mm 1 mps 726 mmHg 16%
09:00 +14°C° 0 mm 1 mps 726 mmHg 14%
10:00 +18°C° 0 mm 1 mps 726 mmHg 11%
11:00 +20°C° 0 mm 1 mps 726 mmHg 9%
12:00 +21°C° 0 mm 1 mps 726 mmHg 9%
13:00 +21°C° 0 mm 2 mps 726 mmHg 9%
14:00 +23°C° 0 mm 2 mps 726 mmHg 8%
15:00 +20°C° 0 mm 2 mps 725 mmHg 10%
16:00 +19°C° 0 mm 1 mps 725 mmHg 11%
17:00 +16°C° 0 mm 1 mps 725 mmHg 13%
18:00 +15°C° 0 mm 1 mps 725 mmHg 14%
19:00 +14°C° 0 mm 1 mps 725 mmHg 15%
20:00 +12°C° 0 mm 1 mps 725 mmHg 16%
21:00 +12°C° 0 mm 1 mps 725 mmHg 16%
22:00 +12°C° 0 mm 1 mps 725 mmHg 16%
23:00 +12°C° 0 mm 1 mps 725 mmHg 16%

Day after tomorrow, 2 November, Monday

Time Temperature Precipitation Wind Pressure Humidity
00:00 +12°C° 0 mm 1 mps 725 mmHg 16%
01:00 +11°C° 0 mm 1 mps 724 mmHg 16%
02:00 +11°C° 0 mm 1 mps 724 mmHg 16%
03:00 +11°C° 0 mm 1 mps 724 mmHg 16%
04:00 +10°C° 0 mm 1 mps 724 mmHg 16%
05:00 +10°C° 0 mm 1 mps 724 mmHg 16%
06:00 +10°C° 0 mm 1 mps 725 mmHg 15%
07:00 +11°C° 0 mm 1 mps 725 mmHg 15%
08:00 +11°C° 0 mm 1 mps 725 mmHg 14%
09:00 +14°C° 0 mm 1 mps 726 mmHg 12%
10:00 +18°C° 0 mm 1 mps 726 mmHg 10%
11:00 +21°C° 0 mm 1 mps 726 mmHg 9%
12:00 +20°C° 0 mm 2 mps 726 mmHg 8%
13:00 +21°C° 0 mm 2 mps 726 mmHg 8%
14:00 +22°C° 0 mm 3 mps 726 mmHg 8%
15:00 +20°C° 0 mm 2 mps 726 mmHg 9%
16:00 +18°C° 0 mm 2 mps 726 mmHg 11%
17:00 +16°C° 0 mm 2 mps 726 mmHg 12%
18:00 +15°C° 0 mm 1 mps 726 mmHg 14%
19:00 +13°C° 0 mm 1 mps 726 mmHg 15%
20:00 +12°C° 0 mm 1 mps 726 mmHg 17%
21:00 +11°C° 0 mm 1 mps 726 mmHg 17%
22:00 +11°C° 0 mm 1 mps 726 mmHg 17%
23:00 +10°C° 0 mm 1 mps 726 mmHg 17%

3 November, Tuesday

Time Temperature Precipitation Wind Pressure Humidity
00:00 +10°C° 0 mm 1 mps 726 mmHg 17%
01:00 +10°C° 0 mm 1 mps 726 mmHg 17%
02:00 +9°C° 0 mm 2 mps 726 mmHg 17%
03:00 +10°C° 0 mm 1 mps 726 mmHg 17%
04:00 +9°C° 0 mm 1 mps 726 mmHg 17%
05:00 +9°C° 0 mm 1 mps 726 mmHg 17%
06:00 +9°C° 0 mm 1 mps 727 mmHg 16%
07:00 +10°C° 0 mm 1 mps 727 mmHg 16%
08:00 +10°C° 0 mm 1 mps 727 mmHg 15%
09:00 +13°C° 0 mm 1 mps 727 mmHg 13%
10:00 +16°C° 0 mm 1 mps 728 mmHg 11%
11:00 +20°C° 0 mm 1 mps 728 mmHg 9%
12:00 +21°C° 0 mm 1 mps 728 mmHg 9%
13:00 +20°C° 0 mm 2 mps 728 mmHg 8%
14:00 +21°C° 0 mm 3 mps 728 mmHg 8%
15:00 +19°C° 0 mm 2 mps 728 mmHg 10%
16:00 +17°C° 0 mm 2 mps 728 mmHg 12%
17:00 +15°C° 0 mm 1 mps 728 mmHg 14%
18:00 +14°C° 0 mm 1 mps 728 mmHg 16%
19:00 +13°C° 0 mm 1 mps 728 mmHg 18%
20:00 +11°C° 0 mm 1 mps 728 mmHg 20%
21:00 +11°C° 0 mm 1 mps 728 mmHg 20%
22:00 +10°C° 0 mm 1 mps 728 mmHg 20%
23:00 +9°C° 0 mm 2 mps 728 mmHg 20%

4 November, Wednesday

Time Temperature Precipitation Wind Pressure Humidity
00:00 +9°C° 0 mm 2 mps 728 mmHg 21%
01:00 +8°C° 0 mm 2 mps 728 mmHg 21%
02:00 +8°C° 0 mm 2 mps 728 mmHg 22%
03:00 +8°C° 0 mm 2 mps 728 mmHg 22%
04:00 +8°C° 0 mm 2 mps 728 mmHg 23%
05:00 +7°C° 0 mm 2 mps 728 mmHg 24%
06:00 +8°C° 0 mm 2 mps 728 mmHg 23%
07:00 +8°C° 0 mm 2 mps 729 mmHg 22%
08:00 +9°C° 0 mm 2 mps 729 mmHg 22%
09:00 +12°C° 0 mm 2 mps 729 mmHg 19%
10:00 +15°C° 0 mm 2 mps 729 mmHg 16%
11:00 +19°C° 0 mm 1 mps 729 mmHg 13%
12:00 +19°C° 0 mm 2 mps 729 mmHg 14%
13:00 +19°C° 0 mm 2 mps 729 mmHg 15%
14:00 +20°C° 0 mm 3 mps 729 mmHg 16%
15:00 +18°C° 0 mm 3 mps 728 mmHg 19%
16:00 +16°C° 0 mm 3 mps 728 mmHg 23%
17:00 +13°C° 0 mm 3 mps 728 mmHg 26%
18:00 +13°C° 0 mm 2 mps 728 mmHg 28%
19:00 +10°C° 0 mm 2 mps 728 mmHg 31%
20:00 +9°C° 0 mm 2 mps 728 mmHg 33%
21:00 +8°C° 0 mm 2 mps 728 mmHg 33%
22:00 +8°C° 0 mm 2 mps 728 mmHg 34%
23:00 +7°C° 0 mm 2 mps 728 mmHg 34%

5 November, Thursday

Time Temperature Precipitation Wind Pressure Humidity
00:00 +7°C° 0 mm 2 mps 728 mmHg 34%
01:00 +7°C° 0 mm 2 mps 728 mmHg 34%
02:00 +7°C° 0 mm 2 mps 728 mmHg 34%
03:00 +7°C° 0 mm 2 mps 728 mmHg 34%
04:00 +6°C° 0 mm 2 mps 728 mmHg 34%
05:00 +6°C° 0 mm 2 mps 728 mmHg 34%
06:00 +6°C° 0 mm 2 mps 728 mmHg 34%
07:00 +7°C° 0 mm 2 mps 728 mmHg 34%
08:00 +7°C° 0 mm 2 mps 728 mmHg 33%
09:00 +10°C° 0 mm 2 mps 728 mmHg 29%
10:00 +14°C° 0 mm 2 mps 729 mmHg 24%
11:00 +16°C° 0 mm 2 mps 729 mmHg 19%
12:00 +17°C° 0 mm 3 mps 729 mmHg 18%
13:00 +18°C° 0 mm 3 mps 728 mmHg 18%
14:00 +19°C° 0 mm 3 mps 728 mmHg 17%
15:00 +17°C° 0 mm 3 mps 728 mmHg 19%
16:00 +14°C° 0 mm 4 mps 728 mmHg 21%
17:00 +12°C° 0 mm 4 mps 728 mmHg 23%
18:00 +11°C° 0 mm 4 mps 728 mmHg 26%
19:00 +8°C° 0 mm 4 mps 728 mmHg 29%
20:00 +7°C° 0 mm 4 mps 728 mmHg 31%
21:00 +6°C° 0 mm 5 mps 728 mmHg 31%
22:00 +6°C° 0 mm 5 mps 728 mmHg 32%
23:00 +5°C° 0 mm 5 mps 728 mmHg 32%
Show more

We Need Your Consent

Meteoprog and our Service Providers may store and access personal data such as cookies, device identifiers or other similar technologies on your device and process such data to personalise content and ads, as well as provide social media features and to analyse the traffic.

  • Store and/or access information on your device

    Cookies, device identifiers or other information can be stored or accessed on your device for the purposes indicated above.

  • Personalised ads and content, ad and content measurement, audience insights, and products development

    Ads and content can be personalised based on a profile. More data can be added to better personalise ads and content. Ad and content performance can be measured. Insights about the audience who saw the ads and content can be derived. Such data can be used to develop or improve user’s experience, systems and software.

By clicking ‘I Agree’ you will allow the use of indicated cookies, device identifiers, web beacons or other similar technologies. Your settings can be changed in the browser on your device.

For certain purposes, legitimate interests may be relied on, rather than consent. You can read more about this in our Privacy and Cookie Policy.